Regional Weather Roundup
Issued by NWS Sterling, VA

Home | Current Version | Previous Version | Text Only | Print | Product List | Glossary On
Versions: 1 2 3 4 5 6 7 8 9 10 11 12 13 14 15 16 17 18 19 20 21 22 23 24 25 26 27 28 29 30 31 32 33 34 35 36 37 38 39 40 41 42 43 44 45 46 47 48 49 50
000
ASUS41 KLWX 280210
RWRLWX

REGIONAL WEATHER ROUNDUP
NATIONAL WEATHER SERVICE BALTIMORE MD/WASHINGTON DC
1000 PM EDT SAT AUG 27 2016

Note: "FAIR" indicates few or no clouds below 12,000 feet
with no significant weather and/or obstructions to visibility.
 TC=TEMPERATURE CELSIUS

 * =Non NWS site. Station does not report precipitation (e.g. rain,
    snow, etc.), thunder, or fog.

DCZ001-MDZ009-015-VAZ040>042-051-053>054-280300-
WASHINGTON METRO

CITY           SKY/WX    TMP DP  RH WIND       PRES   REMARKS
WASHINGTON NAT CLEAR     82  67  60 E5        30.19R
DULLES         CLEAR     79  64  60 SE3       30.20R
ANDREWS AFB    CLEAR     75  67  76 E1        30.19R
FT BELVOIR     CLEAR     72  68  87 CALM      30.19R
QUANTICO       CLEAR     79  71  76 NE3       30.19
COLLEGE PARK*  CLEAR     72  68  88 CALM      30.19R
LEESBURG*      CLEAR     79  70  73 CALM      30.21R
MANASSAS*      CLEAR     77  70  78 CALM      30.18R
GAITHERSBURG*  CLEAR     73  63  68 CALM      30.24R

$$

MDZ006>007-011-014-280300-
BALTIMORE METRO

CITY           SKY/WX    TMP DP  RH WIND       PRES   REMARKS
BWI AIRPORT    PTCLDY    74  67  78 CALM      30.19R
MD SCIENCE CTR   N/A     84  64  50 MISG      30.19R
MARTIN STATE   CLEAR     75  73  94 CALM      30.20R
ANNAPOLIS      CLEAR     82  71  69 E7        30.19R
FORT MEADE*    CLEAR    N/A N/A N/A CALM      30.21R

$$

MDZ012-015-019>023-280300-
MARYLAND EASTERN SHORE

CITY           SKY/WX    TMP DP  RH WIND       PRES   REMARKS
OCEAN CITY     CLEAR     77  73  87 NE6       30.18R
SALISBURY      CLEAR     72  70  93 NE5       30.19R
BAY BRIDGE AP* CLEAR     79  68  69 E6        30.19R
CAMBRIDGE*     CLEAR     72  66  83 CALM      30.19R
EASTON*        CLEAR     75  72  88 SE5       30.23R

$$

MDZ017>025-280300-
SOUTHERN MARYLAND

CITY           SKY/WX    TMP DP  RH WIND       PRES   REMARKS
PATUXENT RIVER CLEAR     79  69  71 E12       30.17R
ST INIGOES     CLEAR     79  68  69 E7        30.17R
LEONARDTOWN*   CLEAR     72  68  88 CALM      30.20R

$$

MDZ003>005-280300-
NORTH CENTRAL MARYLAND

CITY           SKY/WX    TMP DP  RH WIND       PRES   REMARKS
FREDERICK*     CLEAR     73  73 100 CALM      30.23R
HAGERSTOWN APT CLEAR     80  66  62 E6        30.20R

$$

MDZ501>502-280300-
WESTERN MARYLAND

CITY           SKY/WX    TMP DP  RH WIND       PRES   REMARKS
OAKLAND*       PTCLDY    70  64  83 SE8       30.32R
CUMBERLAND*    CLEAR     81  68  65 CALM      30.24R

$$

VAZ025>031-280300-
SHENANDOAH VALLEY

CITY           SKY/WX    TMP DP  RH WIND       PRES   REMARKS
WINCHESTER*    CLEAR     73  68  83 CALM      30.21R
FRONT ROYAL*   FAIR      72  70  94 CALM      30.19S
LURAY*         FAIR      73  70  88 CALM      30.21S
NEW MARKET*    FAIR     N/A N/A N/A CALM      30.20R
STAUNTON*      CLEAR     71  69  92 CALM      30.25R
WAYNESBORO*    FAIR      76  67  72 SE6       30.25R

$$

WVZ021-048>050-054>055-280300-
EASTERN WEST VIRGINIA PANHANDLE

CITY           SKY/WX    TMP DP  RH WIND       PRES   REMARKS
MARTINSBURG    CLEAR     76  68  76 CALM      30.19R
PETERSBURG*    CLEAR     75  71  88 CALM      30.20R

$$

VAZ036>039-050-280300-
CENTRAL FOOTHILLS

CITY           SKY/WX    TMP DP  RH WIND       PRES   REMARKS
CHARLOTTESVILL CLEAR     76  69  79 NW3       30.20R
CULPEPER*      CLEAR     71  69  95 CALM      30.20R
ORANGE*          N/A     70  70 100 CALM      30.21S
GORDONSVILLE*  NOT AVBL
WARRENTON*     FAIR      69  63  79 CALM      30.19R

$$

VAZ055>057-280300-
NORTH AND CENTRAL PIEDMONT

CITY           SKY/WX    TMP DP  RH WIND       PRES   REMARKS
FREDERICKSBRG* CLEAR     74  69  83 CALM      30.17S
STAFFORD*      CLEAR     70  68  94 CALM      30.23R

$$

NCZ024-NYZ072-PAZ021-071-VAZ022-071-280300-
OTHER REGIONAL OBSERVATIONS

CITY           SKY/WX    TMP DP  RH WIND       PRES   REMARKS
NEW YORK CITY  CLEAR     77  56  48 CALM      30.25R
PHILADELPHIA   MOCLDY    77  63  61 E7        30.22R
PITTSBURGH     PTCLDY    80  68  66 CALM      30.16F
ROANOKE        CLOUDY    83  70  64 E7        30.23R
RICHMOND       PTCLDY    76  67  73 NE5       30.17R
RALEIGH        CLOUDY    75  74  96 CALM      30.14R

$$

ANZ530>537-280300-
MARINE OBSERVATIONS

STATION/POSITION TIME  TEMP    WIND        PRES
                       AIR SEA DIR/SP/G
                 (UTC) (F)     (DEG/KT/KT) (MB)
THOMAS PT LIGHT  0200   81 83  110/ 10/ 12 1023.6R
BALT KEY BRIDGE  0148   83      50/  3/  3 1022.0R
COVE POINT       0148   80     130/ 12/ 15 1022.5R
LEWISETTA        0142   83 85   90/ 14/ 15 1021.2R
SOLOMONS ISLAND  0142   82 85   80/ 11/ 13   N/A
PINEY POINT      0142           80/  4/  5   N/A

$$




USA.gov is the U.S. government's official web portal to all federal, state and local government web resources and services.